Total_Precipitation_Accumulation
0.63 0.73 0.76 0.78 0.80 0.75 0.86 0.96 1.01 0.97 1.06 1.11 1.04 1.01 1.03 1.05 1.02 0.89 0.76 0.69 0.60 0.52 0.49 0.48 0.50 0.54 0.60 0.66 0.72 0.79 0.89 1.05 1.22 1.36 1.58 1.88 2.22 2.55
0.81 0.85 0.84 0.86 0.94 0.86 0.92 1.00 1.03 1.10 1.15 1.04 0.96 0.93 0.90 0.77 0.76 0.72 0.67 0.72 0.61 0.49 0.44 0.43 0.44 0.46 0.48 0.52 0.55 0.60 0.63 0.67 0.72 0.77 0.87 1.05 1.27 1.61
1.15 1.13 1.13 1.15 1.15 1.08 1.12 1.10 1.05 1.15 1.16 0.96 1.01 1.05 0.95 0.79 0.69 0.65 0.64 0.69 0.65 0.63 0.54 0.47 0.40 0.37 0.38 0.41 0.45 0.50 0.52 0.56 0.59 0.59 0.59 0.62 0.66 0.76
1.24 1.45 1.45 1.43 1.33 1.19 1.24 1.20 1.16 1.31 1.26 1.15 1.22 1.23 1.18 0.98 0.87 0.76 0.61 0.61 0.65 0.69 0.59 0.53 0.46 0.40 0.35 0.34 0.36 0.37 0.38 0.40 0.43 0.44 0.43 0.42 0.43 0.45
1.33 1.45 1.54 1.65 1.52 1.39 1.33 1.29 1.31 1.38 1.40 1.31 1.32 1.42 1.40 1.18 1.00 0.78 0.60 0.64 0.58 0.64 0.61 0.54 0.52 0.49 0.44 0.40 0.37 0.36 0.34 0.33 0.34 0.35 0.36 0.37 0.37 0.35
1.40 1.34 1.43 1.68 1.74 1.68 1.52 1.42 1.42 1.47 1.48 1.47 1.48 1.59 1.62 1.53 1.31 1.02 0.83 0.74 0.62 0.58 0.65 0.60 0.56 0.54 0.51 0.46 0.43 0.42 0.41 0.39 0.36 0.35 0.35 0.34 0.32 0.32
1.22 1.15 1.14 1.31 1.53 1.66 1.54 1.48 1.49 1.48 1.48 1.55 1.61 1.68 1.69 1.73 1.57 1.27 1.07 0.95 0.78 0.66 0.69 0.64 0.60 0.55 0.55 0.55 0.50 0.45 0.41 0.38 0.36 0.34 0.33 0.33 0.31 0.29
1.12 1.09 1.00 0.94 1.02 1.20 1.36 1.49 1.56 1.49 1.44 1.52 1.66 1.70 1.70 1.69 1.65 1.48 1.24 1.03 0.87 0.74 0.78 0.76 0.73 0.68 0.57 0.49 0.48 0.43 0.39 0.38 0.37 0.34 0.32 0.30 0.30 0.29
1.05 1.05 0.89 0.81 0.91 0.91 1.06 1.18 1.30 1.36 1.35 1.42 1.52 1.61 1.71 1.81 1.80 1.60 1.40 1.23 1.02 0.87 0.89 0.82 0.77 0.76 0.67 0.57 0.58 0.47 0.41 0.38 0.35 0.34 0.33 0.32 0.31 0.32
1.06 1.06 1.02 0.96 0.94 0.97 1.00 1.01 1.02 1.09 1.16 1.17 1.28 1.45 1.63 1.79 1.91 1.79 1.65 1.38 1.17 1.04 1.01 0.86 0.70 0.65 0.61 0.60 0.62 0.54 0.46 0.41 0.36 0.32 0.32 0.32 0.30 0.29
1.16 1.16 1.15 1.09 1.14 0.99 0.93 0.97 0.99 1.02 1.05 1.08 1.11 1.25 1.50 1.67 1.73 1.73 1.63 1.44 1.21 1.03 0.96 0.91 0.73 0.65 0.62 0.55 0.53 0.56 0.49 0.45 0.42 0.36 0.31 0.31 0.33 0.32
1.24 1.23 1.17 1.05 1.02 0.88 0.82 0.90 0.91 0.91 0.96 0.97 0.98 0.99 1.06 1.33 1.58 1.43 1.35 1.31 1.16 0.95 0.76 0.79 0.78 0.77 0.69 0.52 0.46 0.47 0.44 0.44 0.46 0.43 0.38 0.33 0.35 0.31
1.23 1.18 1.15 1.05 0.83 0.76 0.73 0.78 0.82 0.84 0.94 0.95 0.92 0.93 0.99 1.09 1.26 1.29 1.21 1.15 1.09 0.91 0.74 0.72 0.70 0.72 0.67 0.50 0.39 0.38 0.38 0.36 0.35 0.41 0.46 0.45 0.40 0.36
1.17 1.19 1.21 1.05 0.80 0.68 0.58 0.55 0.53 0.50 0.61 0.74 0.80 0.82 0.85 0.94 1.05 1.17 1.19 1.16 1.04 0.94 0.85 0.82 0.69 0.63 0.58 0.48 0.38 0.33 0.34 0.35 0.35 0.33 0.38 0.52 0.51 0.48
1.00 1.12 1.05 0.88 0.73 0.61 0.53 0.48 0.44 0.42 0.52 0.63 0.70 0.73 0.73 0.80 1.02 1.28 1.42 1.44 1.34 1.10 0.97 0.92 0.83 0.72 0.69 0.56 0.42 0.35 0.33 0.32 0.33 0.36 0.36 0.42 0.48 0.48
0.86 0.91 0.92 0.91 0.87 0.80 0.68 0.57 0.48 0.50 0.55 0.63 0.74 0.85 0.93 1.00 1.09 1.24 1.42 1.47 1.45 1.25 1.04 0.99 0.92 0.90 0.80 0.63 0.54 0.46 0.39 0.34 0.32 0.36 0.42 0.42 0.49 0.57
0.85 0.91 0.93 1.00 1.04 1.03 0.97 0.87 0.80 0.77 0.73 0.74 0.87 0.99 1.03 1.06 1.09 1.18 1.31 1.34 1.24 1.13 0.99 0.91 0.95 0.95 0.90 0.81 0.67 0.53 0.45 0.38 0.35 0.40 0.50 0.51 0.48 0.52
0.73 0.88 1.01 1.09 1.16 1.17 1.17 1.10 1.00 0.91 0.84 0.86 0.92 1.00 1.04 1.05 1.07 1.17 1.27 1.28 1.15 1.03 0.99 0.86 0.87 0.98 0.95 0.83 0.68 0.59 0.53 0.46 0.42 0.49 0.55 0.56 0.51 0.48
0.58 0.74 0.90 1.00 1.11 1.15 1.16 1.10 1.04 0.99 0.97 0.98 1.03 1.05 1.09 1.09 1.10 1.12 1.20 1.24 1.16 1.05 1.02 1.00 0.93 0.92 0.88 0.67 0.51 0.49 0.54 0.51 0.54 0.56 0.58 0.56 0.50 0.47
0.49 0.60 0.73 0.86 1.00 1.13 1.19 1.16 1.12 1.10 1.02 0.99 1.06 1.08 1.11 1.15 1.12 1.08 1.12 1.20 1.18 1.12 1.06 1.00 0.94 0.84 0.76 0.69 0.56 0.49 0.50 0.59 0.64 0.63 0.60 0.62 0.59 0.58
0.52 0.56 0.62 0.73 0.90 1.06 1.15 1.21 1.20 1.14 1.03 1.01 1.04 1.08 1.09 1.13 1.11 1.06 1.10 1.20 1.22 1.15 1.00 0.83 0.76 0.88 0.95 1.00 0.84 0.56 0.51 0.56 0.67 0.75 0.78 0.81 0.75 0.71
0.59 0.61 0.63 0.71 0.86 1.04 1.14 1.18 1.22 1.16 1.10 1.07 1.06 1.10 1.12 1.13 1.12 1.08 1.08 1.15 1.13 1.08 1.00 0.94 1.04 1.20 1.24 1.11 0.86 0.70 0.67 0.68 0.73 0.78 0.80 0.81 0.82 0.75
0.70 0.66 0.66 0.72 0.83 0.97 1.06 1.10 1.16 1.14 1.09 1.07 1.06 1.09 1.13 1.14 1.19 1.19 1.13 1.14 1.15 1.19 1.26 1.23 1.22 1.24 1.22 1.15 1.03 0.91 0.82 0.78 0.78 0.79 0.72 0.69 0.66 0.65